RH
30 27 27 21 15 14 13 12 12 12 11 13 18 21 16 16 22 21 18 25 27 19 15 18 21 20 17 18 19 18 21 23 22 30 38 39 42 44 43 48 54 57 58 60 61 63 63 67 73 76 76 77 78 77 79 86 88 83 83 86 86 85 87 87 86 83 81 81 82 81 79 78 76 73 70 65 62 61 60 59 54 48 45 44 42 40 40
28 25 26 22 14 13 14 12 11 12 12 11 14 16 15 16 20 21 21 26 26 20 21 25 28 28 23 20 20 17 18 19 18 22 29 34 39 41 39 43 50 53 55 57 61 63 64 68 73 77 78 78 78 77 80 87 89 84 83 86 87 86 87 86 84 83 82 82 81 81 79 77 74 71 68 64 61 60 60 59 54 48 46 45 43 42 42
34 27 26 24 17 13 13 13 13 11 11 12 13 15 17 19 20 22 26 26 21 19 24 26 27 29 24 19 20 20 17 19 22 23 25 30 37 37 35 40 48 52 53 56 60 62 65 70 75 78 80 79 77 77 80 87 89 85 83 85 87 87 86 85 84 83 82 82 81 80 79 77 74 70 67 65 61 60 61 60 54 50 49 47 44 44 45
43 29 27 27 19 16 18 17 16 14 14 15 15 15 18 20 21 25 28 25 17 17 23 23 21 26 25 19 20 22 19 17 22 26 27 31 36 37 37 41 48 51 51 54 60 63 65 72 76 77 81 81 77 76 80 85 88 86 84 84 85 86 85 84 84 83 83 82 80 79 78 76 73 70 67 64 61 60 61 59 55 52 51 48 46 46 47
46 31 31 31 26 32 36 24 16 17 16 16 16 15 16 18 20 24 25 20 17 19 21 20 19 20 20 18 19 21 19 17 20 23 24 27 32 35 37 40 44 49 49 51 60 65 67 74 76 76 80 81 78 79 81 84 86 87 85 84 84 84 85 84 83 83 83 81 80 79 77 75 73 69 66 64 60 60 61 58 56 55 52 50 49 48 48
47 38 40 46 46 48 42 24 14 15 15 15 18 18 17 16 15 17 18 15 17 21 19 18 19 17 15 15 16 17 19 22 23 22 22 25 29 33 38 42 43 47 49 52 61 68 71 75 76 76 78 78 78 80 82 82 85 86 86 85 84 84 85 84 83 84 83 80 79 78 75 74 72 68 65 63 60 60 60 58 58 57 53 51 51 50 50
42 36 45 61 62 48 33 22 16 13 12 14 16 17 16 14 13 15 17 15 15 17 16 15 16 15 13 12 12 14 19 23 24 22 21 23 28 34 42 46 46 48 53 59 64 69 73 75 76 77 78 78 79 80 80 81 83 85 85 84 84 84 84 83 83 83 81 79 78 76 74 73 71 67 64 61 60 60 60 59 59 58 56 54 54 53 52
43 45 53 65 63 44 27 24 20 14 15 17 19 20 18 14 15 16 15 15 14 14 15 13 13 14 13 11 12 15 17 19 20 20 19 20 27 37 43 45 46 49 56 64 68 68 71 76 79 79 79 79 80 81 80 79 81 83 85 84 84 83 81 80 80 80 78 76 75 73 72 72 70 66 62 60 60 60 60 60 60 59 58 57 56 56 55
51 57 61 61 57 45 33 30 26 18 17 18 20 24 21 15 15 15 14 15 15 14 15 14 12 13 13 12 14 17 17 15 16 16 16 19 29 41 46 45 45 50 58 66 70 70 72 77 80 80 80 81 81 81 80 79 79 81 83 83 83 82 79 77 76 76 74 73 72 71 71 72 71 66 62 62 61 60 61 62 62 61 59 58 58 58 57
47 56 67 65 56 50 49 50 44 32 24 21 21 23 20 16 14 13 14 16 17 16 16 15 15 16 15 14 15 17 15 13 14 15 16 23 35 44 49 47 46 53 62 68 71 72 74 78 80 80 81 81 81 81 80 79 80 81 82 82 82 81 78 75 74 74 73 71 71 71 70 72 71 65 62 63 61 60 64 65 63 62 61 60 60 59 58
42 52 71 71 56 55 63 63 53 42 31 24 23 21 20 20 16 12 13 14 16 18 17 16 18 18 16 14 16 21 18 14 17 18 17 25 38 46 47 47 49 57 64 69 73 74 75 78 79 79 80 80 80 80 79 79 80 81 80 81 81 80 76 73 71 70 70 70 71 71 71 71 69 66 64 63 61 64 68 66 64 64 63 63 64 62 61
42 49 62 63 54 54 60 55 44 37 28 25 28 27 28 36 33 23 18 16 15 17 19 19 18 16 14 16 25 31 25 20 24 26 22 25 35 42 43 43 50 60 66 69 74 77 77 78 78 78 79 79 79 78 77 76 76 77 77 77 77 76 73 70 68 68 68 70 71 70 70 71 69 68 66 63 64 68 67 65 66 67 66 67 68 65 64
46 52 58 60 54 48 50 51 44 35 28 28 33 36 40 47 45 35 29 27 23 20 19 17 14 14 20 30 37 35 27 25 29 29 28 32 36 40 44 47 53 62 67 70 72 73 75 76 75 75 76 76 77 77 76 74 73 73 73 73 71 70 69 67 67 68 69 70 70 69 70 71 70 68 66 64 67 68 65 64 67 68 68 71 71 67 67
47 50 56 64 60 46 45 50 42 34 34 35 39 47 49 45 41 38 34 34 35 33 28 18 14 21 31 38 41 36 29 30 33 30 31 36 38 43 52 57 58 60 64 69 71 71 72 74 73 73 74 73 74 75 75 74 73 72 71 70 68 67 66 65 66 69 70 70 70 70 70 70 69 68 67 67 68 66 64 67 69 68 69 71 69 67 67
52 54 58 67 66 54 50 51 46 48 57 58 54 54 50 43 39 38 35 36 39 42 39 26 20 29 38 38 38 37 31 32 36 35 36 39 42 50 58 59 58 59 61 64 67 69 72 73 72 72 72 72 72 73 73 73 73 73 72 70 67 66 66 66 67 69 71 70 70 70 70 70 70 71 70 69 68 66 66 68 67 66 68 69 66 65 68
58 60 62 60 53 45 45 52 59 69 78 82 77 63 50 47 47 42 40 41 41 42 42 32 23 28 35 35 37 40 39 40 41 40 41 43 46 52 58 58 58 59 60 60 62 67 70 70 69 68 68 70 71 70 71 71 69 69 69 68 67 66 66 68 70 70 71 71 71 72 72 72 72 73 72 70 68 67 67 68 68 66 66 68 67 67 69
48 48 52 48 39 38 46 55 66 74 76 81 80 63 45 45 49 49 50 50 43 41 43 36 26 25 29 33 37 40 40 41 43 42 43 45 47 47 51 56 60 59 60 63 65 66 67 67 67 67 67 69 70 70 70 71 69 69 68 67 67 67 68 70 72 73 73 72 73 73 73 72 72 73 73 73 72 70 68 69 70 68 65 66 67 67 69
37 33 35 34 34 42 53 58 66 76 77 76 74 61 48 46 47 47 50 49 45 45 46 37 28 27 31 36 43 48 47 44 43 46 46 46 47 47 50 55 58 57 59 62 65 67 68 67 66 66 66 67 69 70 72 72 71 70 69 68 68 69 70 73 74 74 75 75 75 75 74 74 74 75 75 75 73 70 69 69 70 67 63 61 60 61 63
37 37 36 38 43 53 60 58 62 71 75 77 80 73 60 53 46 39 42 47 46 47 48 43 38 40 42 44 52 60 60 54 52 56 57 54 49 47 51 56 56 56 58 60 62 66 66 65 65 65 63 65 67 69 71 72 71 69 69 70 70 70 72 75 75 75 76 77 77 77 76 76 76 76 75 72 69 67 67 68 68 64 59 55 54 55 57
35 40 44 45 46 54 64 65 67 74 77 81 85 76 62 57 50 39 37 42 43 44 47 48 50 55 56 57 64 70 67 64 66 68 71 72 64 54 53 54 52 53 55 55 58 63 63 63 63 62 61 64 65 66 67 68 69 70 71 72 71 70 73 75 75 76 76 76 77 77 76 76 76 76 74 70 67 65 64 65 64 59 55 52 51 50 49
38 45 54 52 45 52 67 73 75 80 83 84 81 68 56 57 54 42 34 35 36 39 44 47 50 54 52 51 57 64 68 76 82 80 79 85 84 75 66 58 52 54 55 52 55 60 62 63 63 61 61 63 63 63 64 65 65 67 69 69 68 68 71 73 74 76 77 77 77 76 75 74 73 72 72 70 66 63 62 61 59 55 53 52 49 44 41
51 54 60 60 56 63 77 84 82 78 80 86 80 61 47 47 47 42 40 38 36 35 36 40 46 51 53 53 53 55 61 72 79 80 80 84 85 83 76 65 58 57 54 50 55 60 60 60 62 60 61 62 62 63 65 65 64 66 67 68 69 69 71 73 74 76 78 78 77 75 74 72 70 69 69 68 65 62 59 57 56 54 52 50 44 39 37
66 59 57 62 66 70 78 84 81 74 76 81 71 52 43 43 40 39 42 43 42 38 34 33 37 43 53 62 63 60 59 61 66 73 78 81 84 83 79 74 71 67 59 52 56 60 59 58 59 59 60 61 61 62 64 66 67 69 70 71 72 73 73 74 75 77 78 78 76 75 74 71 69 67 67 66 63 60 57 57 55 53 50 47 42 38 38
77 66 62 66 70 71 73 74 71 67 68 68 56 44 43 42 38 38 41 42 47 49 43 37 35 37 44 55 64 66 62 56 57 64 71 79 83 80 78 80 83 83 75 61 55 57 58 55 55 56 56 57 58 60 64 67 69 71 72 73 73 72 73 73 75 77 78 77 76 75 74 70 67 66 65 64 62 60 58 58 56 54 51 47 42 39 38
76 67 63 65 67 70 74 74 69 64 61 58 52 46 43 41 40 41 41 41 43 46 46 44 42 40 42 48 57 65 64 58 56 56 58 65 70 71 77 86 87 84 78 65 55 55 57 54 53 54 54 56 58 60 64 69 71 72 73 73 71 71 71 73 75 77 77 76 76 74 73 71 68 66 65 65 64 61 59 58 57 56 54 49 44 40 37
73 63 58 59 63 68 71 74 77 75 68 61 56 48 41 42 45 42 40 42 43 41 42 45 45 45 48 49 53 59 60 56 55 54 53 56 58 60 69 77 75 71 70 64 59 58 57 55 55 55 55 58 60 60 63 69 73 74 74 72 71 70 72 74 75 76 75 75 75 73 73 71 69 66 65 65 64 61 58 56 54 53 51 47 44 42 39
68 58 55 59 64 67 69 73 80 82 71 58 50 43 38 40 42 38 36 40 42 40 40 42 43 46 51 53 54 57 56 51 50 52 53 54 55 56 58 60 62 65 68 67 64 62 59 59 60 59 59 62 63 62 63 67 71 74 73 71 70 71 73 76 76 76 75 75 74 74 73 71 68 65 64 64 64 62 59 57 54 52 49 46 45 43 41
58 54 56 59 61 63 65 66 71 76 70 56 45 40 37 35 36 37 37 38 39 39 40 40 41 44 48 49 51 54 54 51 49 50 52 54 56 58 60 62 64 68 70 70 70 67 64 64 65 67 67 67 65 65 66 68 72 74 74 73 73 72 74 76 77 76 76 76 74 74 72 70 68 65 63 62 62 62 61 59 57 55 53 50 47 45 42
55 52 54 53 54 58 59 58 61 66 64 55 46 40 36 34 34 38 41 41 39 38 39 41 42 43 45 48 50 52 54 55 52 50 53 57 60 61 63 65 67 69 69 71 73 72 68 68 71 74 73 70 69 70 70 70 72 73 74 77 77 75 75 77 78 78 78 77 75 74 73 71 68 65 63 62 61 62 62 61 59 57 56 54 51 47 44
55 53 53 49 50 53 53 52 54 54 49 45 42 39 36 35 35 36 39 42 41 39 41 43 44 44 45 48 52 54 56 57 54 50 52 59 63 65 66 66 67 68 69 69 72 73 71 72 77 79 74 70 71 72 71 72 74 74 76 78 78 77 78 79 79 79 77 76 75 73 71 69 67 65 64 62 61 61 62 61 60 59 57 55 54 51 47
58 57 58 53 49 50 50 48 50 48 41 38 40 39 35 34 35 34 35 37 38 39 41 44 46 48 48 48 50 54 56 57 56 53 53 57 62 65 66 67 67 68 68 69 71 74 73 74 79 79 73 70 70 70 70 73 77 79 80 80 79 78 78 78 78 78 76 75 74 72 70 69 67 66 65 63 61 60 60 60 60 61 59 57 56 54 52
59 58 61 58 53 53 53 51 52 48 40 36 38 37 33 31 33 35 34 35 36 39 42 44 45 46 45 44 46 50 53 56 57 56 54 56 59 61 63 65 64 65 67 68 70 71 71 73 77 79 76 74 73 72 73 76 80 82 82 81 79 78 77 77 78 77 76 75 74 72 71 70 69 67 66 64 62 61 62 61 61 61 59 57 56 55 54
57 57 60 59 58 60 61 60 56 50 42 36 35 32 29 30 33 35 35 36 37 38 39 41 42 42 43 43 42 44 48 52 54 55 55 55 57 59 61 60 59 60 64 67 68 69 70 70 72 75 76 75 74 74 76 79 80 80 80 78 77 77 77 77 78 77 76 75 75 73 72 71 70 68 68 66 64 64 65 63 61 59 59 57 55 55 55
49 49 51 54 60 68 72 70 62 52 44 39 32 27 29 33 34 36 36 37 37 37 37 38 39 40 42 43 44 46 51 54 56 56 55 54 56 59 60 58 57 59 62 64 65 68 69 70 70 71 71 70 69 70 74 78 79 79 78 76 74 74 77 78 78 77 76 76 76 75 74 73 71 70 68 67 66 65 65 63 59 57 57 56 54 54 55
44 46 47 47 52 61 66 68 62 52 43 36 30 28 32 35 35 38 40 38 37 38 38 37 39 41 42 44 46 49 54 56 57 57 56 55 54 55 55 56 57 58 59 60 62 66 71 73 73 72 70 68 66 67 70 74 75 76 77 75 72 72 76 78 77 76 76 76 75 75 75 74 72 70 68 68 67 65 63 61 59 56 55 54 53 52 53
41 44 43 41 45 51 56 58 54 43 33 29 28 30 34 35 36 39 39 37 37 39 38 37 39 41 43 46 47 48 50 52 51 51 51 51 50 49 50 53 55 55 57 59 61 65 69 71 71 71 70 68 66 66 70 72 72 74 77 76 72 71 75 76 75 73 72 71 71 72 73 73 72 70 68 67 67 66 63 61 59 56 54 53 51 50 51
39 39 39 37 38 41 43 44 39 31 27 27 29 31 34 36 37 37 36 35 37 38 37 37 39 41 43 46 47 46 47 48 47 46 47 47 46 45 45 47 50 53 58 63 65 65 66 66 66 67 68 68 66 66 69 69 70 75 80 78 71 69 72 72 71 70 68 67 67 68 69 70 70 69 67 66 66 65 64 61 60 57 54 52 50 48 49
33 35 41 41 37 34 35 36 33 29 27 29 31 32 35 37 37 36 35 34 35 36 36 36 36 37 38 40 42 45 47 47 46 46 45 45 45 45 42 42 48 54 57 61 64 65 65 65 64 64 66 67 67 67 68 67 67 74 80 76 68 65 67 68 68 67 65 64 65 65 66 67 68 67 66 65 64 63 63 61 60 58 54 52 51 48 47
33 32 37 39 35 32 32 32 31 29 28 30 33 36 38 39 38 36 33 33 36 37 35 33 32 35 36 33 34 40 46 45 45 45 44 42 45 46 42 42 48 53 52 54 61 64 61 60 63 66 66 66 67 66 66 66 68 74 78 74 65 62 63 64 66 66 64 63 63 63 65 68 68 65 64 64 62 62 63 62 60 59 58 56 54 51 50
49 40 36 35 34 33 33 31 30 30 30 32 36 39 39 37 36 33 32 34 37 37 34 33 36 40 40 35 33 37 41 41 41 41 41 40 41 41 40 44 52 55 53 54 60 60 55 55 63 68 65 64 66 67 66 66 68 72 74 72 67 64 65 65 66 67 68 68 66 64 66 70 70 66 65 65 65 66 68 67 64 62 61 58 54 51 50
60 54 50 46 39 32 29 30 31 32 34 37 39 40 40 37 34 32 33 36 37 36 35 37 39 40 39 37 36 36 38 38 38 38 39 41 40 40 45 53 57 56 53 54 56 54 51 55 63 65 61 59 64 67 66 65 66 69 73 74 71 69 67 66 66 69 71 72 69 68 69 71 71 69 68 68 68 70 71 69 66 65 62 58 54 52 50
56 58 62 61 49 36 32 35 36 36 38 40 39 39 39 37 34 32 33 35 35 36 36 37 39 41 40 37 34 35 36 37 37 37 39 40 39 41 49 58 59 55 53 55 57 54 52 54 59 60 58 58 63 65 64 65 67 70 73 72 69 67 67 66 65 67 69 70 71 71 70 69 69 71 72 71 70 72 71 68 66 66 63 58 55 54 50
53 58 63 64 56 44 39 39 37 36 38 39 38 36 35 33 32 32 33 33 33 34 36 35 36 38 39 37 37 39 39 38 37 36 36 38 43 48 54 59 59 55 53 54 55 54 53 53 56 57 57 59 62 64 64 65 66 67 67 65 64 65 66 65 63 63 64 66 68 70 69 68 70 72 72 71 71 72 71 68 67 65 62 57 53 51 48
56 61 63 65 63 54 42 33 30 32 35 35 33 31 29 29 31 32 31 31 31 33 36 38 36 36 37 39 41 41 39 38 38 36 35 40 52 58 58 58 59 57 53 51 53 55 56 56 57 57 57 58 60 61 62 64 64 62 61 62 63 63 62 62 61 60 61 63 65 65 65 67 68 68 68 70 71 70 69 68 65 61 57 53 51 48 46
54 58 60 64 71 68 50 30 25 31 33 30 28 28 26 27 30 30 28 29 31 33 37 41 41 39 38 39 39 39 40 40 40 39 38 44 54 58 56 56 59 58 55 54 56 57 58 58 58 58 59 59 59 60 61 62 63 61 60 62 63 60 58 59 60 59 60 63 63 62 61 63 64 63 63 65 66 64 62 61 58 54 51 50 48 47 46
51 53 54 58 69 74 60 38 28 31 32 27 26 27 26 25 27 28 27 29 31 33 36 40 42 42 41 38 38 41 44 44 43 42 42 47 54 58 57 57 57 57 57 58 59 59 59 60 60 58 57 57 59 60 60 59 59 58 58 59 60 58 57 57 57 58 59 60 58 56 56 58 58 57 56 57 57 56 54 52 50 48 48 48 48 48 48
51 50 51 53 59 65 61 48 38 36 36 33 32 32 30 28 29 30 30 30 30 31 34 37 39 41 42 40 39 42 45 45 43 43 44 47 55 60 61 59 57 58 60 61 60 59 60 59 58 57 57 56 58 60 60 57 55 55 55 55 57 57 57 56 55 55 55 55 53 52 52 53 53 52 51 51 52 51 49 48 48 48 49 50 50 49 49
61 55 52 54 55 54 52 48 45 43 41 41 40 37 34 33 34 35 37 37 35 33 34 36 38 40 42 40 39 41 44 44 44 43 43 45 52 58 59 57 55 57 62 63 61 59 59 57 55 55 56 56 57 59 58 55 53 53 54 54 56 57 56 54 53 53 53 52 51 51 51 51 51 51 51 50 51 50 50 49 50 51 50 50 50 49 49
77 69 63 64 66 62 55 50 50 49 47 46 45 42 39 38 41 43 43 42 40 37 37 39 42 44 44 42 41 42 44 45 45 44 43 43 45 50 54 56 55 56 60 64 63 58 56 55 56 55 55 55 58 59 56 53 53 54 53 53 55 56 55 53 52 51 51 51 50 51 51 51 51 51 51 50 50 51 52 51 52 52 51 50 49 49 49
85 84 79 78 79 77 69 62 60 60 60 58 56 52 46 42 42 45 46 45 44 43 43 43 45 46 45 45 45 45 45 45 47 47 45 43 43 46 50 54 54 53 55 60 62 58 54 53 54 55 54 55 57 58 55 52 53 54 54 53 53 53 53 53 51 51 51 50 50 51 51 49 49 49 49 49 49 49 50 51 51 51 50 50 49 49 49
83 88 90 88 86 85 81 76 74 75 75 73 71 66 57 46 41 43 46 47 46 46 46 44 45 46 47 48 49 48 47 46 47 48 46 45 46 46 47 48 50 51 51 52 54 55 54 53 53 52 53 55 58 56 53 51 52 52 52 52 52 52 51 51 50 49 49 50 50 50 49 48 47 48 48 48 48 49 49 49 48 49 50 50 50 50 50
85 87 90 90 89 89 86 82 81 81 82 82 83 82 75 63 54 49 48 47 48 48 47 45 44 46 48 50 52 53 51 48 48 49 49 48 48 49 48 48 51 53 53 49 47 48 51 54 53 50 49 52 55 53 49 48 50 52 51 51 51 51 51 50 50 50 50 50 51 52 51 50 48 48 48 48 48 48 48 48 49 49 50 51 51 51 51
Wind_Speed
12 12 13 15 18 16 16 18 18 18 17 15 11 9 11 10 6 5 6 6 9 7 7 7 4 2 5 8 7 7 6 5 6 7 9 10 10 10 11 13 14 14 13 14 14 15 18 24 25 26 27 26 27 29 27 27 31 32 31 31 31 31 30 30 30 30 30 29 28 28 29 29 26 23 20 20 21 21 21 21 21 21 20 20 20 19 19
10 12 15 14 16 17 17 17 18 17 17 15 13 11 12 12 9 6 5 3 6 7 6 8 5 2 5 6 5 6 7 7 6 6 9 12 12 12 12 13 15 15 14 14 15 15 17 23 26 25 25 26 28 29 27 27 30 32 31 32 32 30 30 31 30 29 29 29 28 28 29 28 26 24 21 20 21 21 21 21 21 21 20 20 20 20 20
9 11 13 16 17 18 18 18 18 18 18 17 15 12 10 10 9 6 4 4 4 3 9 9 4 3 4 4 4 5 5 7 7 5 7 11 13 13 13 14 14 14 13 14 15 15 17 23 26 24 24 25 28 29 27 26 29 32 31 31 32 31 30 30 30 29 29 29 28 29 28 28 26 25 23 21 21 22 21 21 22 21 21 21 20 20 20
8 9 12 15 13 12 14 17 17 17 17 14 12 11 9 8 7 6 5 4 4 1 8 11 5 2 3 4 6 5 3 5 8 7 8 10 12 12 13 14 14 13 14 14 15 16 18 23 26 24 24 26 27 28 28 26 28 30 31 31 31 31 30 30 31 32 30 28 29 28 28 28 27 25 24 22 22 22 22 22 22 22 21 21 20 20 20
6 8 9 11 9 6 7 11 14 15 15 13 12 13 11 9 6 5 6 5 3 4 5 12 10 10 9 9 8 7 5 6 7 7 8 10 12 12 12 14 14 14 13 13 14 16 18 22 25 26 28 28 26 26 28 28 29 30 30 30 30 30 30 29 31 32 30 29 29 27 27 28 27 26 25 23 22 23 22 22 22 22 22 21 20 21 21
5 6 4 6 6 6 6 7 11 16 16 15 13 12 11 11 9 6 6 5 5 6 3 3 3 5 6 6 6 5 3 3 3 3 5 7 10 12 12 12 12 11 10 11 16 19 20 23 25 26 28 28 25 26 29 30 29 28 28 30 29 29 30 29 29 31 30 28 27 27 27 28 28 27 25 23 24 23 22 22 23 22 22 22 21 21 21
5 5 2 2 5 7 8 10 10 13 15 14 13 11 11 13 12 10 9 9 9 9 5 3 4 5 7 8 4 4 3 2 3 3 4 4 5 8 12 13 12 10 10 12 16 19 21 24 25 25 26 28 26 27 30 30 28 26 26 27 26 27 29 29 29 30 29 28 28 28 27 28 28 27 24 23 24 24 22 23 23 22 22 22 21 20 21
4 4 3 3 6 8 10 11 10 10 11 10 10 11 12 14 15 14 13 11 11 9 7 5 6 7 9 9 4 4 4 6 5 5 5 5 5 6 9 12 11 11 13 16 19 20 21 23 24 23 26 28 27 27 29 30 27 26 26 25 24 27 29 29 30 30 29 29 29 28 28 29 29 27 25 24 23 23 23 22 22 22 21 21 21 20 19
3 3 3 4 6 6 6 5 6 7 8 8 7 6 8 12 13 12 12 12 12 11 9 7 7 8 10 8 3 4 7 9 7 7 7 7 8 7 6 9 13 16 20 22 23 23 22 22 23 25 27 29 27 26 27 27 27 27 27 25 26 28 28 29 31 31 29 29 29 29 28 29 30 27 25 25 23 23 23 23 22 22 22 21 21 20 19
3 3 4 4 5 3 2 5 11 8 5 5 5 4 6 9 10 10 11 12 13 12 10 8 7 8 9 7 4 6 11 11 8 8 6 6 10 10 7 9 14 20 25 26 26 26 25 22 23 26 29 29 26 24 25 26 26 28 27 26 28 29 29 29 30 30 30 29 29 29 28 28 30 27 25 26 26 23 23 24 22 22 21 20 20 20 20
4 3 4 5 3 0 3 9 13 13 10 4 2 6 5 5 8 11 13 14 12 10 9 8 8 8 7 7 4 3 6 7 5 4 5 7 10 9 10 12 15 21 26 27 26 26 24 22 25 28 29 28 25 22 23 25 25 26 28 29 29 30 30 30 29 29 29 29 29 29 27 27 30 27 24 26 25 22 23 24 21 20 22 20 19 21 22
5 4 4 4 2 1 5 8 11 13 11 5 5 9 4 3 4 4 8 11 11 10 9 7 8 8 6 5 2 2 1 4 5 3 3 7 7 6 11 15 20 25 26 26 25 25 24 23 26 29 29 27 24 22 23 24 25 26 27 29 29 29 29 28 27 26 27 28 29 29 27 27 28 27 25 25 24 22 24 23 20 21 23 20 20 23 23
4 4 4 4 3 2 4 7 11 12 8 4 5 5 0 6 8 7 5 5 5 7 8 7 8 7 4 3 4 2 1 5 7 5 5 9 9 9 10 17 24 26 24 23 22 23 25 25 26 29 28 25 23 24 24 24 24 25 25 27 29 29 28 27 26 25 26 29 29 29 28 28 28 27 27 26 25 24 24 22 21 22 22 20 20 22 21
4 4 4 3 3 4 7 9 10 7 3 4 2 2 4 6 6 7 6 6 7 6 4 7 6 2 5 6 5 1 2 5 8 8 9 13 14 12 14 23 26 23 23 24 22 22 25 26 27 28 26 23 22 23 23 23 25 26 26 27 28 28 26 26 25 25 27 28 28 28 28 29 30 28 27 27 27 26 25 23 23 23 21 19 20 20 20
2 3 3 2 2 4 6 8 7 4 3 2 4 5 6 7 7 7 4 4 6 8 7 6 4 6 7 4 4 1 3 5 8 9 10 12 14 14 17 23 25 23 22 24 24 24 25 26 27 27 26 23 22 21 21 22 25 27 29 28 28 28 26 25 25 26 28 30 30 30 31 32 32 30 28 28 27 26 26 24 24 23 21 20 20 20 20
0 2 3 1 4 5 2 4 3 2 4 6 8 7 4 6 8 7 6 5 4 5 8 8 1 5 5 2 2 3 2 4 7 9 10 10 11 14 17 21 25 25 22 22 24 25 25 26 27 27 25 23 22 20 21 22 22 24 25 26 27 27 26 25 26 28 30 32 32 32 32 32 32 31 29 29 27 25 25 25 25 24 22 21 20 19 19
3 3 3 5 8 5 4 5 1 2 4 5 10 7 4 6 7 7 7 8 6 5 7 7 3 2 3 3 3 4 3 7 7 9 11 10 9 12 17 21 24 24 22 21 22 22 24 26 26 25 25 24 23 21 22 24 24 23 24 25 26 27 26 25 27 29 30 31 32 32 33 33 32 32 30 29 27 25 24 24 25 24 22 20 19 19 19
5 6 6 7 7 2 7 5 3 3 2 5 8 7 5 5 5 6 5 8 9 9 9 6 2 1 3 5 4 6 4 8 7 7 10 10 9 11 15 19 22 22 23 23 22 21 23 24 24 24 24 25 24 23 24 27 27 26 26 26 26 26 24 24 26 28 29 30 31 31 31 31 31 31 31 30 28 25 23 24 25 24 22 20 19 19 20
2 3 1 2 5 6 5 3 3 4 1 3 6 7 5 4 5 5 4 6 7 8 8 5 2 3 4 3 3 5 4 6 6 6 5 5 9 13 16 19 20 20 20 21 22 23 23 24 24 23 23 23 23 22 24 28 29 28 27 27 25 24 23 22 24 27 29 31 31 31 30 29 27 27 28 29 28 25 24 25 24 22 21 21 20 20 20
3 2 7 7 5 6 6 5 4 3 4 4 5 6 3 6 7 5 5 4 5 7 7 5 5 5 4 2 2 2 1 1 2 2 3 2 1 7 17 21 19 18 18 18 20 21 22 22 23 22 21 22 23 23 24 27 29 28 28 28 25 23 22 21 22 26 29 31 31 30 29 28 27 27 28 28 27 25 26 26 24 23 22 22 21 21 20
3 3 8 9 4 5 9 8 6 6 7 8 10 4 4 4 6 6 6 6 6 7 7 7 8 8 6 4 3 4 4 2 1 1 3 3 8 5 10 16 15 14 17 19 19 19 20 21 22 21 21 21 23 24 23 26 28 27 28 29 25 22 21 19 18 23 29 30 31 30 28 27 27 27 28 28 25 23 25 25 24 23 23 22 22 21 21
3 1 5 7 5 3 7 5 5 4 4 9 13 5 7 5 4 6 7 7 7 7 6 7 8 9 9 8 7 6 4 4 7 7 7 6 1 3 6 13 12 12 16 20 21 19 19 21 21 20 20 21 22 22 22 26 29 27 27 28 24 21 21 18 17 22 26 26 27 29 28 26 24 23 24 25 23 21 23 25 24 23 21 21 22 22 22
6 7 5 4 4 3 4 3 4 3 3 7 7 5 8 7 6 6 7 9 8 7 7 7 7 9 10 8 7 7 7 6 6 9 9 10 8 5 6 4 4 7 12 19 24 21 19 19 19 19 20 21 22 22 23 26 28 28 27 25 22 20 21 19 19 22 25 24 25 27 26 25 24 23 23 23 21 20 21 23 24 23 21 20 21 22 22
8 11 7 4 2 1 2 3 6 6 5 5 3 5 7 7 8 8 9 10 8 6 7 8 8 8 10 7 6 6 6 7 7 7 9 11 12 10 4 2 1 4 3 12 22 22 19 18 16 17 17 19 21 23 23 24 27 28 27 24 21 20 20 20 21 23 23 23 24 25 24 23 23 23 23 22 20 18 19 21 24 24 22 21 21 23 22
7 9 5 2 1 2 1 3 5 5 4 4 4 5 6 7 8 8 9 9 8 6 6 6 8 10 10 8 7 6 5 6 8 8 9 11 11 11 10 7 3 1 4 7 14 19 19 17 14 12 12 13 17 20 22 24 27 27 25 23 21 20 20 21 22 22 21 23 23 23 23 23 22 22 22 22 20 18 17 19 23 24 23 22 23 23 23
9 8 3 2 4 4 4 2 5 8 8 7 5 5 5 6 5 5 7 8 8 8 7 7 8 10 11 9 7 5 4 6 9 10 9 8 8 10 10 6 3 5 8 9 10 13 15 15 13 10 9 12 17 19 20 22 24 24 21 21 21 20 22 25 26 25 24 25 25 24 25 24 22 21 22 21 21 21 20 20 21 22 22 22 23 22 22
9 7 2 1 1 3 5 6 2 5 9 7 5 4 4 3 3 3 5 7 6 7 9 9 8 8 9 9 8 6 5 6 7 7 7 7 8 10 9 7 6 8 10 11 11 12 14 13 10 8 8 13 18 21 20 21 22 22 20 18 17 18 21 24 25 24 25 26 26 25 26 26 24 23 22 21 22 23 23 23 23 22 23 23 24 22 21
6 3 3 4 3 0 2 4 5 5 6 6 5 5 4 1 2 3 5 6 6 6 8 9 9 7 6 6 5 5 5 6 6 6 7 8 9 11 11 10 9 9 11 12 11 11 12 11 9 8 10 15 20 23 23 22 21 22 21 18 17 20 23 24 23 23 24 25 25 23 24 25 24 23 22 22 22 23 23 23 23 23 22 22 23 23 22
2 3 4 5 3 2 2 1 4 5 4 4 5 4 4 3 3 5 6 6 6 6 7 8 9 8 7 6 5 5 5 5 6 6 8 9 9 9 8 8 8 7 8 9 10 9 8 8 9 12 15 18 20 24 26 25 23 22 21 20 21 26 29 28 26 25 24 25 25 23 23 24 23 22 22 22 22 22 21 22 22 22 20 19 21 22 22
1 2 4 5 4 4 5 4 2 3 4 4 3 2 2 2 2 4 5 4 5 6 6 6 6 7 7 6 7 6 5 5 6 6 8 10 10 9 8 6 5 4 4 5 7 7 6 7 11 14 17 19 20 23 26 26 23 22 21 18 20 26 29 28 27 26 25 25 25 24 24 24 22 22 22 22 22 21 20 21 22 21 19 19 22 25 25
2 1 1 3 5 6 6 5 3 3 2 1 1 1 1 2 4 5 5 5 5 5 5 5 5 6 5 5 6 7 7 6 5 5 7 8 8 8 7 5 4 4 3 4 5 6 5 7 11 15 17 19 20 22 23 23 21 20 18 16 17 23 27 27 26 25 23 22 23 25 25 24 22 22 23 22 22 21 20 20 22 22 19 19 22 24 26
3 1 1 2 4 5 7 7 5 4 3 2 2 2 3 5 6 6 6 6 6 6 6 6 5 5 5 5 5 7 6 6 5 4 5 7 7 6 5 4 3 4 4 5 6 6 5 6 10 14 17 17 17 17 18 19 18 17 17 15 17 21 26 26 24 22 20 20 22 23 23 23 21 22 23 23 22 21 19 18 21 22 20 19 20 22 25
2 0 1 3 3 3 4 5 6 6 5 2 2 3 4 5 6 7 6 6 6 6 5 4 4 4 4 5 5 5 6 5 5 4 4 5 6 6 5 2 1 3 3 5 7 8 7 7 9 13 15 16 15 15 16 18 19 18 19 19 18 22 26 27 24 21 19 20 22 22 23 23 21 21 23 23 22 21 19 19 21 23 21 19 19 21 25
2 1 1 1 0 0 1 1 4 5 5 4 2 2 4 5 6 6 6 5 5 5 4 3 2 3 5 6 7 8 7 5 4 4 4 4 5 6 6 4 4 4 3 3 5 7 8 8 9 12 14 14 14 15 17 20 20 20 20 20 20 23 26 27 24 21 20 21 22 22 23 23 21 20 22 23 22 21 21 21 22 23 22 21 19 19 24
1 1 2 4 4 4 3 2 5 6 3 3 3 2 4 5 5 5 4 5 6 6 5 4 4 5 6 7 8 9 8 6 5 6 6 5 4 3 3 3 3 3 2 1 1 3 4 5 7 10 12 13 15 17 18 19 20 20 18 18 20 24 26 26 24 21 20 20 22 22 23 24 23 21 21 22 22 22 21 21 22 21 21 21 19 17 20
0 1 1 3 3 5 6 6 8 7 3 2 2 3 5 4 5 5 4 6 7 7 6 5 6 6 8 9 9 9 8 8 7 7 7 6 5 3 2 1 1 2 2 1 4 6 6 4 6 9 10 10 12 15 17 18 19 18 16 17 22 24 24 24 22 19 18 19 20 21 22 23 22 21 20 21 22 22 21 20 21 21 21 21 21 20 20
3 2 2 1 1 1 3 3 5 4 2 2 2 4 4 3 4 4 4 6 8 7 6 5 6 5 6 7 7 7 7 7 7 7 7 8 9 7 3 1 1 1 2 3 6 8 7 4 3 5 6 5 5 8 13 16 16 13 10 15 21 23 21 21 21 18 17 18 18 18 20 22 22 21 21 21 21 21 22 22 22 24 23 22 20 20 22
4 3 3 3 3 2 2 2 2 3 4 3 3 5 4 4 4 4 3 5 7 6 6 4 4 3 2 3 5 6 7 6 7 7 6 7 9 9 7 5 6 6 5 5 5 5 3 2 1 3 5 6 5 4 5 10 13 9 6 11 18 19 18 18 18 17 16 17 17 18 19 21 21 21 22 22 21 21 23 23 24 25 25 19 14 14 20
7 5 4 4 4 3 2 2 2 2 3 2 2 4 4 4 3 3 3 5 7 7 7 5 5 5 4 2 2 6 8 8 7 7 7 7 7 8 9 6 6 9 7 7 8 7 3 3 2 3 4 5 6 6 5 8 11 7 4 7 13 15 15 14 14 14 13 15 16 17 17 19 20 20 20 21 21 20 21 22 22 22 21 18 15 15 18
11 10 8 5 4 3 3 3 3 2 3 3 3 4 3 2 3 4 4 6 6 4 6 7 9 10 10 7 5 8 9 8 7 6 7 7 7 7 7 4 8 12 10 8 7 4 3 4 1 5 5 4 4 6 6 8 11 8 4 4 8 11 12 11 11 12 13 14 15 15 14 14 15 15 14 16 16 15 14 16 17 15 15 17 18 17 17
9 12 12 10 7 5 3 2 2 4 4 4 5 4 3 4 5 5 5 5 5 4 6 9 10 10 11 11 10 8 8 7 7 7 7 7 7 7 4 5 10 10 7 6 5 4 3 1 3 6 5 4 7 8 7 8 11 11 8 6 6 8 9 9 11 13 13 13 14 14 13 13 13 13 14 16 18 16 13 15 17 15 13 15 18 19 17
6 9 12 13 12 8 4 3 3 3 3 3 4 4 3 5 7 7 6 5 4 3 4 8 8 5 6 8 8 7 6 6 7 8 5 2 4 6 5 7 8 7 7 5 4 5 3 4 6 5 4 2 7 6 4 4 8 10 8 7 8 10 12 13 14 14 12 10 12 13 13 13 15 16 16 16 18 17 16 17 19 19 17 16 18 20 21
8 9 9 11 10 6 3 2 1 1 2 2 2 1 2 4 6 8 8 6 4 2 2 4 4 4 5 7 8 8 8 8 9 10 7 3 5 10 11 8 6 7 8 5 3 4 3 4 6 4 1 2 3 2 1 1 7 9 8 8 11 13 13 14 17 17 15 12 12 14 14 13 14 15 15 15 15 16 17 18 19 20 20 20 20 21 22
12 10 9 10 12 10 5 2 1 0 1 2 2 1 2 5 7 7 6 4 3 4 6 6 5 6 8 7 6 6 7 8 9 10 9 5 8 13 13 8 6 7 8 7 6 7 8 9 7 3 1 1 2 2 2 3 7 7 5 6 9 11 12 12 13 14 14 13 13 14 14 14 14 15 15 15 15 16 18 20 20 20 21 22 23 23 22
15 12 11 13 14 16 13 4 2 3 1 3 3 3 2 4 7 6 5 5 4 6 7 7 7 7 7 6 5 6 8 7 7 9 8 5 5 7 7 5 5 6 7 7 7 6 6 7 6 5 4 4 4 4 3 5 7 7 3 3 5 7 8 8 7 7 9 11 13 15 16 16 15 16 16 18 19 20 20 21 21 21 22 23 24 23 20
19 18 16 16 16 19 19 10 4 4 3 1 2 3 4 3 5 6 6 7 7 7 5 5 4 4 5 7 7 8 8 7 7 7 8 7 5 5 6 6 5 5 4 6 6 6 6 8 8 7 5 4 3 5 5 5 6 7 5 3 5 6 7 7 8 9 10 12 13 15 16 17 16 15 16 17 19 20 20 19 18 18 17 15 14 15 15
18 19 19 19 20 21 19 13 9 9 7 4 2 3 6 7 7 7 6 6 6 5 4 4 5 5 4 6 6 6 6 6 6 6 8 8 7 7 7 8 7 5 3 3 3 4 6 8 6 4 3 1 4 6 5 5 5 6 6 6 8 9 9 9 9 9 10 12 11 9 10 12 11 11 12 14 15 15 15 16 14 13 11 10 11 12 13
19 18 18 21 22 21 19 16 14 12 10 10 10 7 5 6 9 11 10 10 9 6 5 5 6 5 3 3 3 4 6 6 5 6 7 8 8 7 6 8 8 5 2 1 2 5 7 6 4 3 1 2 5 4 4 4 2 3 4 4 6 8 8 9 9 8 10 10 8 7 8 9 8 8 8 8 8 7 8 9 10 11 11 12 14 15 16
20 19 19 20 21 21 19 17 13 11 13 16 18 15 10 10 14 16 15 14 11 8 6 8 9 9 7 5 4 6 7 6 6 8 9 8 7 6 6 7 8 7 2 2 1 6 8 6 4 3 2 4 5 3 6 4 1 1 4 4 1 2 4 5 6 7 7 7 8 8 8 8 7 7 7 6 6 6 7 8 9 11 13 14 15 16 17
21 20 19 18 19 19 19 16 14 14 16 18 20 20 16 14 15 15 17 17 15 12 10 12 15 17 17 15 13 13 12 10 9 9 10 10 8 7 6 6 7 7 4 1 2 2 6 7 5 3 3 5 3 5 7 2 2 2 2 3 3 4 4 5 4 5 5 6 8 9 9 8 7 7 7 7 7 9 10 11 12 13 14 14 14 14 16
19 18 17 17 17 18 19 19 17 17 18 19 20 21 20 15 15 15 18 19 17 15 13 13 16 18 20 19 19 20 20 19 16 14 15 15 12 9 6 6 6 5 4 3 3 2 1 5 5 3 3 4 4 6 5 3 1 0 2 2 3 3 2 3 3 3 4 5 4 4 5 6 7 7 6 7 8 9 9 9 9 10 11 13 14 14 15
18 18 18 19 19 19 19 21 21 21 20 20 21 22 21 18 15 17 20 21 20 17 15 14 15 17 20 20 20 20 22 22 21 21 22 22 20 17 15 14 13 11 12 12 9 3 1 2 2 3 2 1 5 7 5 2 2 3 3 3 3 2 3 4 4 3 4 5 6 6 6 6 6 7 8 9 9 10 10 9 8 8 10 14 16 16 15
Wind_Direction
260 276 273 234 211 213 215 212 214 216 221 224 216 210 213 213 223 242 222 159 140 173 194 154 139 206 148 130 143 153 143 144 143 134 131 134 145 158 157 156 163 173 176 170 167 174 173 169 170 171 172 171 170 174 178 173 168 168 169 167 166 167 168 169 169 168 169 171 173 171 168 164 160 158 162 171 173 173 174 174 171 172 172 170 170 169 166
265 273 284 262 224 214 213 212 216 216 217 222 223 216 216 224 238 256 266 230 180 169 130 95 65 49 112 112 112 123 140 159 161 164 161 155 162 178 175 170 174 177 178 173 171 176 174 171 171 168 168 170 169 171 176 173 168 169 168 165 165 166 167 168 169 167 168 172 172 168 166 163 160 160 165 171 172 173 175 173 172 174 172 170 172 169 166
277 269 279 276 247 220 210 211 216 217 214 216 220 221 226 236 238 246 273 264 236 135 100 92 52 31 80 99 133 155 169 160 154 185 185 164 171 186 185 179 179 179 180 177 173 177 177 172 171 166 163 167 168 169 171 169 167 169 167 162 162 164 164 166 171 172 171 171 168 164 165 164 161 163 167 171 173 175 175 173 174 175 171 172 173 170 168
275 265 268 276 264 233 220 217 215 217 215 209 215 223 233 246 242 246 251 240 262 277 122 123 137 204 197 201 206 213 212 168 166 184 190 178 181 189 188 183 183 183 185 181 175 179 178 171 170 167 160 163 169 170 168 165 164 164 165 162 160 162 164 167 172 176 174 168 164 163 166 167 165 165 168 172 174 176 176 175 175 174 172 174 173 171 171
268 262 272 292 295 280 253 226 211 216 217 208 211 216 220 231 243 254 242 214 259 292 160 147 168 200 205 207 209 208 207 198 183 179 188 190 189 191 189 184 184 185 187 180 173 176 176 169 171 170 162 164 171 169 163 162 161 159 160 161 162 163 166 168 172 175 172 165 163 165 167 170 169 167 169 174 175 176 177 175 175 174 174 175 174 173 173
274 265 298 324 287 247 254 251 221 215 215 210 213 215 209 214 230 261 261 233 257 285 257 164 207 230 230 232 210 178 174 182 159 173 207 198 190 189 178 173 184 189 182 169 164 168 172 171 171 169 163 165 168 162 158 160 163 161 159 160 163 166 168 170 171 171 168 165 166 167 168 172 172 168 171 177 175 175 177 175 175 176 176 177 176 175 175
275 276 287 303 263 239 253 271 249 225 222 216 211 216 214 209 216 237 246 237 245 257 260 278 291 283 279 273 235 151 143 163 160 196 220 201 200 194 169 165 185 192 172 158 159 165 171 171 169 166 163 164 162 158 157 158 162 166 164 163 165 168 170 172 170 170 170 169 169 171 172 175 172 170 176 178 172 173 178 177 176 178 177 177 176 175 176
279 283 255 248 282 267 246 251 249 236 235 227 207 208 214 208 205 213 223 233 246 254 253 247 253 265 270 266 240 168 198 211 190 195 212 202 203 197 168 167 181 180 162 155 157 163 169 169 166 162 160 159 157 157 158 157 160 166 167 168 170 169 171 172 170 171 173 172 171 173 174 175 173 173 176 173 168 173 178 176 177 178 177 177 177 175 174
275 283 280 278 289 267 220 236 264 241 229 230 220 209 212 210 205 204 209 220 233 241 244 237 235 251 258 254 225 192 231 234 202 192 214 199 170 151 144 164 169 159 151 151 155 161 166 166 162 158 156 156 154 155 157 158 161 166 169 174 175 173 175 175 172 173 174 174 174 174 172 173 175 175 174 171 171 174 176 175 176 177 177 177 177 174 173
280 297 308 287 270 238 196 318 317 309 281 245 233 238 226 209 203 202 207 215 222 227 233 232 234 248 253 247 220 210 223 223 198 194 205 165 143 138 143 165 161 147 145 151 158 162 165 164 159 156 157 157 157 158 159 160 163 166 171 177 177 178 179 177 172 172 173 174 173 172 171 172 174 173 169 168 172 174 175 174 174 177 177 174 175 175 172
277 291 306 292 285 291 287 307 318 314 308 311 226 222 223 205 206 210 213 218 218 217 222 222 225 239 242 232 229 231 214 190 165 184 183 136 127 143 164 168 153 139 142 149 153 157 162 161 157 156 158 159 161 163 164 166 168 170 174 178 178 178 179 177 174 172 173 174 173 171 169 170 173 173 165 162 168 172 173 173 172 175 174 170 173 174 171
279 291 300 294 290 264 268 297 318 308 297 299 226 209 198 3 325 254 227 226 220 212 212 215 221 230 233 223 200 50 96 136 122 125 139 119 124 170 184 167 146 134 137 144 146 152 161 160 155 155 157 159 164 167 168 172 176 178 178 177 176 176 177 177 177 175 174 175 173 170 168 166 168 170 164 162 167 170 170 172 173 173 173 173 175 173 173
291 298 303 296 268 264 287 301 302 292 275 244 220 207 200 350 342 347 337 299 262 225 208 210 224 223 195 132 99 85 182 162 155 168 151 137 161 196 177 144 135 132 136 141 145 154 162 160 155 157 161 163 166 168 170 175 182 184 179 174 173 176 176 175 177 178 177 175 172 169 167 162 161 163 164 165 167 167 168 172 172 171 173 174 172 172 179
293 289 294 301 277 296 323 315 297 284 242 206 219 302 321 324 336 343 348 356 350 329 253 221 221 157 103 101 95 88 230 169 165 182 166 151 165 175 147 133 135 140 142 145 150 157 161 160 158 160 165 166 169 173 177 180 183 182 179 176 173 173 173 172 174 175 173 171 169 165 163 160 159 160 163 165 166 165 167 170 170 170 172 173 174 179 188
323 283 274 314 293 274 307 327 332 358 29 338 325 326 323 341 350 340 351 19 358 340 315 257 192 99 83 78 69 350 243 175 160 168 163 156 158 153 140 138 144 148 149 153 158 161 161 161 161 165 170 170 174 182 185 185 182 179 179 178 172 168 168 169 169 169 169 170 168 165 163 163 161 160 162 164 165 165 167 169 170 171 172 175 180 185 187
315 263 236 274 281 267 315 28 17 30 21 336 314 315 345 3 351 346 2 7 350 334 317 297 268 104 104 80 12 301 226 151 154 157 149 151 155 149 144 145 146 148 153 160 161 159 163 166 166 169 174 173 175 183 185 185 184 178 174 170 163 159 162 163 163 165 169 171 170 166 164 163 161 161 164 165 165 165 167 169 169 168 170 175 180 182 182
237 257 231 243 263 278 49 59 75 74 38 315 292 303 16 27 6 7 1 345 348 339 304 288 268 188 137 88 341 298 167 153 180 172 149 151 164 156 148 146 145 146 151 159 160 160 165 170 170 173 176 173 173 178 180 182 183 178 171 165 159 157 159 160 161 163 164 167 169 167 165 164 162 162 164 165 166 167 166 166 166 166 170 176 179 180 182
235 245 233 246 270 24 77 75 76 79 43 295 303 330 15 21 12 27 8 348 2 356 324 306 287 278 98 85 339 296 191 172 182 162 146 156 171 165 149 143 145 149 154 158 159 159 166 173 178 180 179 174 173 175 175 174 175 173 169 164 156 153 155 157 160 162 160 162 166 167 166 166 165 165 166 167 168 169 168 167 167 170 176 183 186 186 186
247 258 220 347 0 41 68 78 86 91 48 329 328 324 329 338 354 34 29 5 20 12 344 340 7 24 65 80 293 274 205 166 145 129 137 162 172 163 150 145 149 153 157 162 162 161 169 177 179 180 179 175 174 176 173 168 167 166 166 162 152 148 150 154 159 163 164 164 165 166 166 167 166 167 170 171 170 171 173 172 173 178 185 190 191 189 187
253 30 36 27 35 65 57 34 34 34 16 348 283 267 307 341 339 9 30 23 46 37 6 14 53 65 71 65 288 265 160 83 77 78 60 13 266 144 137 147 160 157 158 169 169 164 167 170 171 175 179 178 177 180 179 172 166 164 165 163 158 153 152 154 159 166 168 168 167 167 167 168 169 170 174 175 176 179 181 179 181 188 192 192 191 189 188
284 40 15 351 341 79 61 29 358 5 8 324 286 269 77 11 331 359 14 19 56 53 23 24 46 59 66 60 69 106 118 123 155 34 66 19 331 2 122 149 163 158 162 172 169 162 161 164 168 176 180 180 181 183 181 175 170 167 163 161 161 159 157 157 163 168 169 169 169 169 169 172 175 178 181 182 182 186 188 188 190 193 193 191 191 192 192
304 352 356 340 328 39 63 31 329 355 8 301 295 337 60 43 13 26 14 14 43 53 47 47 49 49 44 32 36 57 81 128 149 155 147 137 25 308 187 174 169 170 175 167 155 155 161 163 170 177 177 178 182 182 176 171 171 168 160 156 158 162 162 162 165 165 165 168 170 171 171 173 176 181 186 188 189 190 192 193 195 195 193 193 195 196 197
310 312 333 359 341 4 85 144 247 247 217 255 285 17 43 26 27 37 30 33 35 23 28 43 49 58 59 42 31 32 20 32 94 127 137 136 148 199 225 205 177 196 185 157 145 151 162 165 172 179 177 178 182 180 173 170 170 166 156 153 157 161 164 168 170 168 167 169 171 173 174 175 175 174 175 182 189 191 191 193 195 195 196 200 199 196 197
300 298 317 354 341 357 99 204 236 233 229 253 312 44 49 35 33 30 31 44 47 29 24 24 24 46 62 54 36 34 23 21 48 94 118 131 151 164 152 80 310 276 222 152 147 149 155 162 173 180 179 182 183 177 169 166 167 163 159 160 165 165 165 166 168 170 171 171 171 174 176 177 175 169 166 171 180 187 193 198 199 199 203 206 201 195 195
277 281 305 1 111 115 65 309 297 295 286 298 349 31 46 46 43 39 36 38 40 45 51 42 33 44 56 54 39 27 23 24 28 45 79 100 114 117 109 115 153 41 50 112 134 140 148 159 169 176 176 172 169 166 161 159 162 163 162 164 166 162 159 161 164 168 171 170 171 174 174 173 172 170 170 173 176 178 182 189 194 199 206 208 204 199 200
266 269 277 100 110 108 102 51 345 323 312 317 340 4 20 26 30 46 57 48 30 28 42 51 54 58 61 63 61 47 30 30 31 31 43 62 74 84 94 109 110 71 74 89 110 129 146 154 158 167 168 154 153 158 157 155 157 160 161 163 165 164 167 170 172 173 172 171 173 176 176 176 177 177 178 180 179 174 169 170 179 190 198 203 205 206 207
255 262 276 260 162 124 125 126 151 272 284 299 318 330 348 4 8 38 70 74 53 32 34 40 50 67 74 72 73 69 55 54 59 53 45 42 43 50 61 66 60 69 83 93 106 125 138 143 150 164 161 152 155 160 158 153 152 154 159 165 169 173 177 178 178 178 177 175 176 178 179 181 183 182 181 182 181 179 177 177 180 186 193 198 202 205 207
256 289 312 291 287 3 112 134 162 221 272 303 312 310 319 352 104 77 56 59 58 49 43 39 38 51 66 67 69 74 71 74 80 74 64 61 54 47 47 51 60 77 90 95 102 120 135 142 144 140 136 142 151 155 155 153 152 155 162 169 174 181 186 185 181 182 181 178 176 179 182 185 185 183 181 179 179 181 185 188 189 191 195 199 202 204 206
279 326 311 300 313 326 304 230 179 198 231 265 280 300 332 358 65 68 44 34 40 47 44 37 36 41 44 46 51 61 68 77 80 78 81 83 77 68 63 58 57 73 99 110 114 127 147 151 137 129 132 140 148 151 153 154 156 161 170 178 180 184 188 187 182 182 183 181 181 183 185 186 184 180 177 177 178 180 185 190 194 194 193 194 197 199 202
305 323 311 315 324 310 304 314 288 216 206 214 249 282 330 340 8 64 64 47 48 55 46 34 37 39 36 41 50 50 53 67 71 74 86 93 92 88 88 88 84 90 110 118 119 136 162 154 138 139 147 153 155 155 155 156 161 169 178 184 184 183 184 182 181 182 182 181 182 184 183 181 180 179 178 179 180 181 183 188 192 191 190 189 190 193 197
227 254 295 320 326 323 320 325 323 296 267 250 286 278 122 72 50 58 58 43 42 51 45 35 39 39 30 37 55 59 57 62 65 64 73 88 99 105 107 109 112 120 137 133 126 146 174 159 146 154 165 168 166 165 164 164 168 177 184 185 183 183 181 178 179 182 183 180 179 180 179 178 179 181 182 181 180 179 180 183 185 187 191 191 189 191 195
208 278 44 319 330 347 346 344 342 325 309 313 3 29 59 66 62 57 47 36 35 40 39 33 30 27 20 27 57 74 72 62 61 65 70 80 90 96 107 131 145 144 156 160 150 159 188 183 161 165 174 176 174 174 174 174 176 184 191 190 185 187 188 184 179 181 183 181 179 178 178 178 180 182 183 183 182 181 182 182 182 186 194 196 189 189 193
183 43 351 318 338 26 14 352 335 319 313 328 53 59 55 57 60 56 45 37 36 35 35 29 16 16 19 17 34 68 82 75 65 62 67 82 83 69 58 66 107 109 139 169 170 171 190 204 185 174 179 183 183 183 182 180 181 188 194 194 191 192 194 192 187 183 183 183 182 181 180 180 182 185 187 188 188 187 188 189 185 185 193 200 197 194 195
35 68 153 164 145 101 44 344 308 308 323 335 355 67 70 64 61 54 37 30 31 27 21 19 14 30 43 36 34 46 59 64 63 55 50 64 80 72 64 54 39 51 91 165 180 178 192 205 197 188 191 191 187 187 186 184 185 191 194 194 192 190 189 188 186 184 183 183 184 186 186 186 188 190 191 191 190 190 193 196 191 187 190 199 204 205 202
38 336 130 130 146 182 196 237 264 265 273 299 312 46 68 58 60 64 46 27 28 21 14 27 41 47 54 56 55 57 59 57 56 53 45 40 49 71 85 81 54 58 93 199 200 160 181 200 194 191 195 194 191 192 192 189 193 200 203 198 191 186 182 182 184 186 186 185 185 187 189 192 194 193 191 191 193 195 198 200 196 194 195 198 203 210 212
233 308 13 92 133 174 187 220 250 251 245 281 321 70 74 51 46 50 33 27 31 23 16 40 59 60 60 60 57 54 52 49 46 44 38 27 17 23 62 99 191 200 188 107 66 90 115 143 168 179 187 191 193 195 195 194 200 209 207 193 182 178 177 179 183 188 190 188 186 186 188 191 193 193 191 191 194 197 200 201 198 200 205 206 206 209 211
5 2 329 338 357 190 197 237 264 280 330 358 31 76 85 78 62 45 26 40 45 23 5 35 64 67 72 79 78 71 63 48 33 29 30 20 7 359 358 1 331 231 162 98 68 73 88 99 141 182 194 196 192 193 194 197 203 210 203 184 177 173 174 177 182 187 190 189 186 186 186 188 190 193 194 194 194 195 198 199 198 201 208 213 209 204 200
315 314 300 310 318 291 259 268 298 341 0 11 49 67 70 72 62 32 14 53 53 18 350 17 63 53 50 94 115 110 95 69 35 18 13 11 7 356 346 1 35 56 74 84 85 89 89 67 357 249 233 220 212 214 213 210 211 210 195 182 180 176 172 175 180 183 186 186 186 187 186 186 188 192 196 196 196 195 196 198 201 204 208 208 197 184 186
306 302 307 315 311 297 293 303 325 356 2 9 64 73 71 65 42 358 354 52 53 18 346 1 26 6 335 315 108 87 71 55 32 8 349 348 359 347 327 337 55 76 68 68 88 99 74 11 331 261 242 230 225 232 239 235 232 227 186 173 181 176 168 171 180 184 187 189 189 189 188 189 192 196 196 195 195 195 196 198 201 202 202 199 189 177 178
333 322 318 312 302 306 321 319 326 17 42 57 73 75 70 46 6 352 12 51 55 16 349 13 23 4 348 355 39 53 39 25 14 1 349 347 345 322 304 338 69 75 65 62 77 76 12 0 282 220 222 216 220 226 225 231 239 240 213 172 166 151 141 148 170 184 191 195 191 188 189 193 198 202 200 196 193 190 186 187 190 191 192 195 195 189 184
345 331 329 323 310 300 302 314 22 54 58 65 72 64 32 359 1 10 31 54 50 18 21 38 35 9 358 10 22 20 14 8 1 357 359 355 338 322 326 58 64 56 47 44 31 355 347 72 195 236 246 209 201 216 225 224 225 224 214 198 177 158 158 172 186 190 193 193 189 187 189 191 192 196 198 197 195 194 189 186 189 191 194 197 201 203 206
6 350 336 316 299 298 331 19 56 79 78 72 71 60 31 11 13 16 28 46 43 22 44 60 55 22 357 4 2 353 357 6 358 351 354 334 318 338 27 81 74 44 33 36 357 321 298 187 202 255 316 111 164 187 213 215 208 204 197 189 188 188 189 194 199 203 204 196 184 185 190 192 192 195 197 196 196 197 195 191 193 198 204 208 208 211 217
10 10 347 314 300 311 6 40 70 106 103 97 95 91 75 56 36 22 17 18 8 350 34 64 62 41 22 15 5 358 0 2 355 352 353 17 42 39 51 80 84 45 35 36 343 330 12 119 162 194 312 73 135 147 16 196 197 201 204 202 201 200 198 198 205 211 211 199 188 191 197 202 204 205 203 200 198 196 194 196 200 205 209 212 213 214 217
6 17 14 358 344 332 308 241 182 53 126 140 123 7 43 90 81 53 25 3 4 30 40 32 22 31 38 31 12 356 356 359 359 355 355 21 53 48 48 64 70 39 26 19 7 18 48 76 101 136 201 282 278 288 289 218 207 214 214 195 191 194 191 189 196 201 196 189 192 201 205 207 208 207 202 199 200 201 202 204 206 207 207 209 213 216 217
10 18 26 25 3 333 310 296 79 52 34 119 89 23 11 116 110 73 29 13 32 54 59 46 28 24 23 12 5 8 6 359 354 354 358 24 51 38 32 43 39 15 11 18 25 34 51 50 33 10 341 317 294 272 243 215 214 220 213 162 168 180 176 170 179 197 202 202 206 207 206 206 210 210 206 202 203 205 206 205 205 207 209 211 212 210 207
11 14 20 29 16 345 325 324 25 39 359 36 80 23 3 44 79 62 37 32 39 47 54 57 55 38 3 351 6 21 14 355 350 4 17 34 51 46 37 31 15 6 29 48 43 29 12 1 351 339 329 314 261 222 218 218 212 212 213 199 185 190 197 201 203 208 218 225 224 214 205 204 208 212 211 209 208 208 209 208 208 209 210 207 201 194 192
12 14 16 20 15 359 343 347 23 34 13 360 30 27 9 19 38 44 33 24 30 41 50 61 78 80 38 0 360 9 3 351 353 12 26 41 61 67 48 25 14 24 69 75 33 1 352 348 344 337 329 288 192 198 230 247 218 205 216 214 196 194 207 214 212 212 222 231 236 228 216 215 221 227 225 220 217 215 212 210 207 205 203 202 200 199 199
9 15 18 17 14 10 9 18 31 31 15 7 10 11 13 35 44 38 22 10 13 29 49 56 61 67 53 2 357 15 17 5 353 358 18 38 56 59 36 14 13 29 85 154 29 23 20 16 18 20 9 179 178 202 279 290 225 215 255 242 204 198 205 206 207 219 226 221 214 215 221 230 248 262 252 231 221 221 217 204 193 192 200 208 211 209 207
7 12 21 22 16 13 16 24 27 19 10 6 2 358 9 43 48 34 18 12 14 22 44 60 53 37 20 16 39 44 33 16 359 354 359 12 31 40 27 11 14 27 56 190 347 24 30 38 44 45 91 149 173 255 295 294 190 304 322 323 286 235 234 218 215 228 230 208 195 203 217 226 242 261 265 252 238 239 237 223 210 210 216 219 215 210 209
12 13 19 23 19 16 18 24 23 14 11 8 0 355 8 41 52 34 15 12 15 18 32 52 49 33 20 20 30 32 25 17 9 359 350 352 9 30 32 13 7 19 38 172 247 9 43 57 63 80 144 162 199 284 302 306 137 161 260 278 270 250 234 216 215 237 245 222 202 201 207 212 218 229 238 235 225 221 222 220 216 215 217 220 218 215 215
19 17 14 15 18 19 21 23 20 13 12 13 9 3 8 31 54 45 27 21 19 15 21 39 46 35 22 18 20 21 19 19 19 15 7 4 5 5 355 341 339 347 353 337 293 261 83 64 53 63 142 187 237 279 299 327 17 314 245 265 296 296 249 211 207 234 262 269 260 241 230 222 213 214 228 236 234 231 232 231 225 217 217 223 226 226 225
24 22 18 17 18 19 21 22 20 15 12 15 17 13 12 20 35 37 30 27 24 18 15 26 39 37 27 20 18 17 17 19 22 23 20 18 15 10 5 8 13 10 1 355 350 344 149 119 46 41 84 211 271 285 290 298 320 310 282 258 257 280 281 269 255 246 255 271 281 284 275 254 233 225 231 237 233 228 226 231 236 232 226 226 227 228 231